Regional Weather Roundup
Issued by NWS State College, PA

Home | Current Version | Previous Version | Text Only | Print | Product List | Glossary On
Versions: 1 2 3 4 5 6 7 8 9 10 11 12 13 14 15 16 17 18 19 20 21 22 23 24 25 26 27 28 29 30 31 32 33 34 35 36 37 38 39 40 41 42 43 44 45 46 47 48 49 50
552
ASUS41 KCTP 170303
RWRCTP

REGIONAL WEATHER ROUNDUP
NATIONAL WEATHER SERVICE STATE COLLEGE PA
1000 PM EST SAT DEC 16 2017

Note: "fair" indicates few or no clouds below 12,000 feet with no
significant weather and/or obstructions to visibility.

* = STATION THAT DOES NOT REPORT PRECIPITATION /E.G. RAIN...SNOW...ETC/
    THUNDER OR FOG.

PAZ002>004-007>009-013>016-020>023-029>032-170400-
WESTERN PENNSYLVANIA

CITY           SKY/WX    TMP DP  RH WIND       PRES   REMARKS
ERIE           CLOUDY    30  26  85 CALM      30.14S
MEADVILLE      CLOUDY    29  29 100 NE3       30.11R FOG
FRANKLIN*      CLOUDY    27  26  96 CALM      30.11R FOG
NEW CASTLE     FAIR      24  22  91 CALM      30.13R
BEAVER COUNTY  NOT AVBL
BUTLER*        CLEAR     24  23  96 CALM      30.12R
PITTSBURGH INT PTCLDY    34  25  69 CALM      30.11S
PITTSBURGH     CLEAR     35  23  61 S8        30.11S
INDIANA*       CLOUDY    25  23  93 CALM      30.15R
LATROBE        CLEAR     27  23  86 SW7       30.13S
WASHINGTON CO* CLEAR     28  24  85 CALM      30.16R
$$

PAZ004>006-010>012-017>019-024>028-033>037-041-042-045-046-049>053-170400-
CENTRAL PENNSYLVANIA

CITY           SKY/WX    TMP DP  RH WIND       PRES   REMARKS
BRADFORD       CLOUDY    28  27  96 CALM      30.07S FOG
DUBOIS         MOCLDY    30  24  78 CALM      30.08F
CLEARFIELD     CLOUDY    32  27  81 N6        30.10S
JOHNSTOWN      CLEAR     35  24  64 W10       30.07R
ALTOONA        CLEAR     31  23  72 CALM      30.11R
STATE COLLEGE  CLOUDY    36  27  69 CALM      30.12S
WILLIAMSPORT   CLOUDY    36  29  75 CALM      30.15R
SELINSGROVE    CLOUDY    33  30  88 CALM      30.15S
FT INDIANTOWN  CLOUDY    36  30  77 CALM      30.14R
CAPITAL CITY   CLEAR     33  25  72 CALM      30.15R
HARRISBURG     PTCLDY    32  28  85 CALM      30.15R
YORK           CLEAR     24  22  91 CALM      30.15R
$$

PAZ038>040-043-044-047-048-054-055-060>062-067>071-170400-
EASTERN PENNSYLVANIA

CITY           SKY/WX    TMP DP  RH WIND       PRES   REMARKS
SCRANTON       CLOUDY    29  23  78 N6        30.15R
MOUNT POCONO   CLOUDY    25  23  92 VRB5      30.07S
ALLENTOWN      CLOUDY    37  27  67 N7        30.16R
QUAKERTOWN*    MOCLDY    32  27  80 CALM      30.15R
READING        CLOUDY    39  30  70 W3        30.15R
LANCASTER      CLOUDY    38  27  64 CALM      30.16R
COATESVILLE    CLOUDY    36  25  64 CALM      30.17R
POTTSTOWN      CLOUDY    38  25  59 CALM      30.18R
BLUE BELL      CLOUDY    32  27  80 CALM      30.18R
DOYLESTOWN     CLOUDY    34  25  69 SE3       30.15R
WILLOW GROVE   NOT AVBL
NORTH PHILA    CLOUDY    40  26  57 SW3       30.19R
PHILADELPHIA   CLOUDY    38  28  67 SW5       30.19R
$$




USA.gov is the U.S. government's official web portal to all federal, state and local government web resources and services.